Lexington Weather

Lexington, Massachusetts, USA

70°F
8/17/2022 6:42pm 
  • Lexington Conditions: Overcast
  • Temperature: 69.8°F / 21.0°CColder 0.2°F than last hour.
  • Dew Point: 58.3°FDecreased 0.2°Fsince last hour.
  • Relative Humidity: 67
  • Wind: Calm, 10-min avg: Calm, gust: 3 mph
  • Barometer: 29.85 in Steady
  • Visibility: 10 miles
  • Rain Today: 0.00 in
  •   

Regional Weather Roundup
for Boston, MA

        
000
ASUS41 KBOX 150610
RWRBOX

REGIONAL WEATHER ROUNDUP
NATIONAL WEATHER SERVICE BOSTON/NORTON MA
200 AM EDT MON AUG 15 2022

NOTE:  "FAIR" INDICATES FEW OR NO CLOUDS BELOW 12,000 FEET WITH NO 
SIGNIFICANT WEATHER AND/OR OBSTRUCTIONS TO VISIBILITY.

MAZALL-150700-
EASTERN MASSACHUSETTS
  
CITY           SKY/WX    TMP DP  RH WIND       PRES   REMARKS
BOSTON         PTCLDY    70  54  56 W7        30.02F                  
6HR MIN TEMP:  69; 6HR MAX TEMP:  73;                                

BEVERLY        PTCLDY    62  56  80 CALM      30.01F                  
LAWRENCE       PTCLDY    64  55  72 S3        30.04F                  
BEDFORD        CLEAR     62  55  77 CALM      30.01F                  
BLUE HILL      NOT AVBL                                               
NORWOOD        PTCLDY    57  52  83 S5        30.02S                  
MARSHFIELD     MOCLDY    64  57  77 W3        30.01F                  
PLYMOUTH       MOCLDY    64  57  78 CALM      30.03F                  
TAUNTON          N/A    N/A N/A N/A MISG      30.02F                  
NEW BEDFORD    MOCLDY    62  60  93 CALM      30.02F                  
$$

MAZALL-150700-
CAPE COD AND THE ISLANDS
  
CITY           SKY/WX    TMP DP  RH WIND       PRES   REMARKS
FALMOUTH       CLEAR     59  57  94 CALM      30.03F                  
HYANNIS        MOCLDY    59  56  89 CALM      30.02F                  
CHATHAM        MOCLDY    66  63  90 CALM      30.04F                  
NANTUCKET      PTCLDY    67  63  87 S7        30.03F                  
MARTHAS VNYRD  PTCLDY    56  54  93 CALM      30.03F                  
$$
 
MAZALL-150700-
CENTRAL AND WESTERN MASSACHUSETTS
  
CITY           SKY/WX    TMP DP  RH WIND       PRES   REMARKS
WORCESTER      CLEAR     65  52  62 W9        30.05F                  
6HR MIN TEMP:  61; 6HR MAX TEMP:  73;                                

FITCHBURG      CLEAR     59  50  72 CALM      30.03F                  
ORANGE         CLEAR     55  52  89 CALM      30.06F                  
SPRINGFIELD    CLEAR     56  53  91 CALM      30.02S                  
WESTFIELD      NOT AVBL                                               
NORTH ADAMS    PTCLDY    54  52  93 CALM      30.05                   
PITTSFIELD     CLEAR     54  51  90 CALM      30.05F                  
$$
 
RIZALL-150700-
RHODE ISLAND
  
CITY           SKY/WX    TMP DP  RH WIND       PRES   REMARKS
PROVIDENCE     PTCLDY    64  55  72 W7        30.03F                  
6HR MIN TEMP:  64; 6HR MAX TEMP:  73;                                

NEWPORT        MOCLDY    62  59  90 CALM      30.03S                  
BLOCK ISLAND   MOCLDY    65  58  78 W3        30.04S                  
SMITHFIELD     PTCLDY    57  55  93 W3        30.04F                  
WESTERLY       MOCLDY    61  57  87 CALM      30.03F                  
$$
 
CTZALL-150700-
CONNECTICUT
  
CITY           SKY/WX    TMP DP  RH WIND       PRES   REMARKS
BRADLEY INTL   PTCLDY    60  55  83 NE5       30.03F                  
6HR MIN TEMP:  60; 6HR MAX TEMP:  76;                                

HARTFORD       CLEAR     64  57  78 CALM      30.03S                  
BRIDGEPORT     MOCLDY    69  60  73 CALM      30.02F                  
DANBURY        PTCLDY    60  55  83 CALM      30.05F                  
GROTON         MOCLDY    64  59  83 N3        30.02F                  
NEW HAVEN      PTCLDY    65  59  81 CALM      30.03F                  
CHESTER        FAIR      59  55  88 CALM      30.05S                  
MERIDEN        PTCLDY    57  53  86 CALM      30.03F                  
WILLIMANTIC    PTCLDY    57  54  89 NE3       30.05S                  
OXFORD         CLEAR     63  57  81 CALM      30.06F                  
$$

MEZ002-015-021-024-NHZ003-005-008-011-012-014-VTZ005-008-150700-
NORTHERN NEW ENGLAND
  
CITY           SKY/WX    TMP DP  RH WIND       PRES   REMARKS
PORTLAND ME    PTCLDY    60  52  74 W5        30.03S                  
6HR MIN TEMP:  59; 6HR MAX TEMP:  71;                                

BANGOR ME      PTCLDY    60  58  92 CALM      30.03S                  
CONCORD NH     CLEAR     56  53  90 CALM      30.03F                  
MANCHESTER NH  PTCLDY    59  53  80 CALM      30.01F                  
NASHUA NH      CLEAR     58  55  90 NW5       30.03F                  
PORTSMOUTH NH  MOCLDY    61  56  83 CALM      30.02S                  
JAFFREY NH     CLEAR     53  50  89 S3        30.06F                  
KEENE NH       CLEAR     53  52  96 CALM        N/A                   
BURLINGTON VT  PTCLDY    58  52  80 E3        30.04S                  
MT. WASHINGTON MOCLDY    46  43  87 SE5         N/A                   
$$

NYZ052-076-150700-
EASTERN NEW YORK
  
CITY           SKY/WX    TMP DP  RH WIND       PRES   REMARKS
ALBANY         PTCLDY    60  55  83 CALM      30.02F                  
6HR MIN TEMP:  59; 6HR MAX TEMP:  75;                                

NEW YORK CITY  MOCLDY    73  54  51 S5        30.01F                  
6HR MIN TEMP:  73; 6HR MAX TEMP:  76;                                

$$
 
ANZALL-150700-
MARINE OBSERVATIONS
  
STATION/POSITION TIME  TEMP    WIND        PRES    VSBY  WAVE
                       AIR SEA DIR/SP/G                  HT/PER
                 (UTC) (F)     (DEG/KT/KT) (MB)    (MI)  (FT/S)
BOSTON BUOY      NOT AVBL
BUZZARDS BAY     NOT AVBL
NANTUCKET SOUND  NOT AVBL
MASS BAY-STELLWA NOT AVBL
ISLE OF SHOALS   NOT AVBL
S OF BLOCK IS    NOT AVBL
$$

......................KEY.........................
  SKY/WX - SKY CONDITION/PRESENT WEATHER
  TMP    - TEMPERATURE IN FAHRENHEIT
  DWPT   - DEWPOINT IN FAHRENHEIT
  RH     - RELATIVE HUMIDITY IN PERCENT
  WIND   - DIRECTION AND SPEED IN MPH
  PRES   - MEAN SEA LEVEL PRESSURE IN INCHES OF HG
  WCI    - WIND CHILL INDEX
  VSB    - VISIBILITY IN MILES
  HX     - HEAT INDEX
  TC     - TEMPERATURE IN CELSIUS
  VRB    - VARIABLE WIND DIRECTION
  N/A    - NOT AVAILABLE
  
      

Other recent Regional Weather Roundups

Wed Aug 17, 6:10pm

Wed Aug 17, 5:10pm

Wed Aug 17, 4:10pm

Wed Aug 17, 3:10pm

Wed Aug 17, 2:10pm

Wed Aug 17, 1:10pm

Wed Aug 17, 12:10pm

Wed Aug 17, 11:10am

Wed Aug 17, 10:10am

Wed Aug 17, 9:10am

Wed Aug 17, 8:10am

Wed Aug 17, 7:10am

Wed Aug 17, 6:10am

Wed Aug 17, 5:10am

Wed Aug 17, 4:10am

Wed Aug 17, 3:10am

Wed Aug 17, 2:10am

Wed Aug 17, 1:10am

Wed Aug 17, 12:10am

Tue Aug 16, 11:10pm

Tue Aug 16, 10:10pm

Tue Aug 16, 9:10pm

Tue Aug 16, 8:10pm

Tue Aug 16, 7:10pm

Tue Aug 16, 6:10pm

Tue Aug 16, 5:10pm

Tue Aug 16, 4:10pm

Tue Aug 16, 3:10pm

Tue Aug 16, 2:10pm

Tue Aug 16, 1:10pm

Tue Aug 16, 12:10pm

Tue Aug 16, 11:10am

Tue Aug 16, 10:10am

Tue Aug 16, 9:10am

Tue Aug 16, 8:10am

Tue Aug 16, 7:10am

Tue Aug 16, 6:10am

Tue Aug 16, 5:10am

Tue Aug 16, 4:10am

Tue Aug 16, 3:10am

Tue Aug 16, 2:10am

Tue Aug 16, 1:10am

Tue Aug 16, 12:10am

Mon Aug 15, 11:10pm

Mon Aug 15, 10:10pm

Mon Aug 15, 9:10pm

Mon Aug 15, 8:10pm

Mon Aug 15, 7:10pm

Mon Aug 15, 6:10pm

Mon Aug 15, 5:10pm

Mon Aug 15, 4:10pm

Mon Aug 15, 3:10pm

Mon Aug 15, 2:10pm

Mon Aug 15, 1:10pm

Mon Aug 15, 12:10pm

Mon Aug 15, 11:10am

Mon Aug 15, 10:10am

Mon Aug 15, 9:10am

Mon Aug 15, 8:10am

Mon Aug 15, 7:10am

Mon Aug 15, 6:10am

Mon Aug 15, 5:10am

Mon Aug 15, 4:10am

Mon Aug 15, 3:10am

Mon Aug 15, 1:10am

Mon Aug 15, 12:10am

Sun Aug 14, 11:10pm

Sun Aug 14, 10:10pm

Sun Aug 14, 9:10pm

Sun Aug 14, 8:10pm

Sun Aug 14, 7:10pm

Sun Aug 14, 6:10pm

Sun Aug 14, 5:10pm

Sun Aug 14, 4:10pm

Sun Aug 14, 3:10pm

Sun Aug 14, 2:10pm

Sun Aug 14, 1:10pm

Sun Aug 14, 12:10pm

Sun Aug 14, 11:10am

Sun Aug 14, 10:10am

Sun Aug 14, 9:10am

Sun Aug 14, 8:10am

Sun Aug 14, 7:10am

Sun Aug 14, 6:10am

Sun Aug 14, 5:10am

Sun Aug 14, 4:10am

Sun Aug 14, 3:10am

Sun Aug 14, 2:10am

Sun Aug 14, 1:10am

Sun Aug 14, 12:10am

Sat Aug 13, 11:10pm

Sat Aug 13, 10:10pm

Sat Aug 13, 9:10pm

Sat Aug 13, 8:10pm

Sat Aug 13, 7:10pm

Sat Aug 13, 6:10pm

Sat Aug 13, 5:10pm

Sat Aug 13, 4:10pm

Sat Aug 13, 3:10pm

Sat Aug 13, 2:10pm

Sat Aug 13, 1:10pm

Sat Aug 13, 12:10pm

Sat Aug 13, 11:10am

Sat Aug 13, 10:10am

Sat Aug 13, 9:10am

Sat Aug 13, 8:10am

Sat Aug 13, 7:10am

Sat Aug 13, 6:10am

Sat Aug 13, 5:10am

Sat Aug 13, 4:10am

Sat Aug 13, 3:10am

Sat Aug 13, 2:10am

Sat Aug 13, 1:10am

Sat Aug 13, 12:10am

Fri Aug 12, 11:10pm

Fri Aug 12, 10:10pm

Fri Aug 12, 9:10pm

Fri Aug 12, 8:10pm

Fri Aug 12, 7:10pm

Fri Aug 12, 6:10pm

Fri Aug 12, 5:10pm

Fri Aug 12, 4:10pm

Fri Aug 12, 3:10pm

Fri Aug 12, 2:10pm

Fri Aug 12, 1:10pm

Fri Aug 12, 12:10pm

Fri Aug 12, 11:10am

Fri Aug 12, 10:10am

Fri Aug 12, 9:10am

Fri Aug 12, 8:10am

Fri Aug 12, 7:10am

Fri Aug 12, 6:10am

Fri Aug 12, 5:10am

Fri Aug 12, 4:10am

Fri Aug 12, 3:10am

Fri Aug 12, 2:10am

Fri Aug 12, 1:10am

Fri Aug 12, 12:10am

Thu Aug 11, 11:10pm

Thu Aug 11, 10:10pm

Thu Aug 11, 9:10pm

Thu Aug 11, 8:10pm

Thu Aug 11, 7:10pm

Thu Aug 11, 6:10pm

Thu Aug 11, 5:10pm

Thu Aug 11, 4:10pm

Thu Aug 11, 3:10pm

Thu Aug 11, 2:10pm

Thu Aug 11, 1:10pm

Thu Aug 11, 12:10pm

Thu Aug 11, 11:10am

Thu Aug 11, 10:10am

Thu Aug 11, 9:10am

Thu Aug 11, 8:10am

Thu Aug 11, 7:10am

Thu Aug 11, 6:10am

Thu Aug 11, 5:10am

Thu Aug 11, 4:10am

Thu Aug 11, 3:10am

Thu Aug 11, 2:10am

Thu Aug 11, 1:10am

Thu Aug 11, 12:10am

Wed Aug 10, 11:10pm

Wed Aug 10, 10:10pm

Wed Aug 10, 9:10pm

Wed Aug 10, 8:10pm

Wed Aug 10, 7:10pm

Meta data:

ID: 290ba3eb-e97c-4f3d-97d6-5c9db9ea9ba8
Link: https://api.weather.gov/products/290ba3eb-e97c-4f3d-97d6-5c9db9ea9ba8